ヨン彗星

172P/Yeung (2025)

English version
Home page
Updated on March 24, 2025

---------------------------------------------------------------------

・ プロフィール

・ 軌道要素

Epoch 2025 May 5.0 TT = JDT 2460800.5
T 2025 Nov. 2.55384 TT                                  Pike
q   3.3581314            (2000.0)            P               Q
n   0.11355731     Peri.  208.90007     -0.50802524     +0.85552913
a   4.2233719      Node    30.88259     -0.74812355     -0.38078987
e   0.2048696      Incl.   11.22328     -0.42687412     -0.35081189
P   8.68
From 377 observations 2012 Sept. 15-2025 Feb. 6, mean residual 0".3.

・ 光度変化

        H = 14.0  G = 0.15

---------------------------------------------------------------------

軌道要素はM.P.E.C. 2025-C143に掲載されたものです。
光度グラフはComet for Windowsで作成したものです。

---------------------------------------------------------------------

Copyright(C) Seiichi Yoshida (comet@aerith.net). All rights reserved.